| time (UTC) | temp F | wind direction | speed MPH | gust MPH | rain 1hr in | rain 24hr in | rain mn in | humidity % | barometer mb |
| 20260505130307 | 54 | 209 | 0.0 | 0.0 | 0.00 | 0.07 | 0.07 | 88 | 1013.4 |
| 20260505124804 | 53 | 209 | 0.0 | 0.0 | 0.00 | 0.07 | 0.07 | 88 | 1013.3 |
| 20260505124301 | 53 | 209 | 0.0 | 0.0 | 0.00 | 0.07 | 0.07 | 87 | 1013.3 |
| 20260505124243 | 53 | 209 | 0.0 | 1.0 | 0.00 | 0.07 | 0.07 | 87 | 1013.4 |
| 20260505123258 | 53 | 209 | 0.0 | 1.0 | 0.00 | 0.07 | 0.07 | 87 | 1013.4 |
| 20260505122755 | 53 | 209 | 0.0 | 1.0 | 0.00 | 0.07 | 0.07 | 87 | 1013.4 |
| 20260505122252 | 53 | 209 | 0.0 | 0.0 | 0.00 | 0.07 | 0.07 | 87 | 1013.4 |
| 20260505121752 | 53 | 209 | 0.0 | 1.0 | 0.00 | 0.07 | 0.07 | 87 | 1013.3 |
| 20260505121243 | 53 | 209 | 0.0 | 1.0 | 0.00 | 0.07 | 0.07 | 87 | 1013.4 |
| 20260505120742 | 53 | 209 | 0.0 | 0.0 | 0.00 | 0.07 | 0.07 | 87 | 1013.3 |
| 20260505120242 | 53 | 209 | 0.0 | 0.0 | 0.00 | 0.07 | 0.07 | 87 | 1013.5 |
| 20260505115743 | 53 | 209 | 0.0 | 0.0 | 0.01 | 0.07 | 0.07 | 87 | 1013.6 |
| 20260505115506 | 54 | 209 | 0.0 | 0.0 | 0.01 | 0.07 | 0.07 | 86 | 1013.6 |
| 20260505114741 | 54 | 209 | 0.0 | 0.0 | 0.01 | 0.07 | 0.07 | 86 | 1013.6 |
| 20260505114241 | 54 | 209 | 0.0 | 2.0 | 0.01 | 0.07 | 0.07 | 86 | 1013.6 |
| 20260505114000 | 54 | 209 | 1.0 | 3.0 | 0.01 | 0.07 | 0.07 | 86 | 1013.6 |
| 20260505113240 | 54 | 209 | 2.0 | 5.0 | 0.01 | 0.07 | 0.07 | 86 | 1013.6 |
| 20260505112737 | 54 | 209 | 2.0 | 5.0 | 0.01 | 0.07 | 0.07 | 86 | 1013.5 |
| 20260505112235 | 54 | 218 | 2.0 | 5.0 | 0.01 | 0.07 | 0.07 | 86 | 1013.6 |
| 20260505111735 | 54 | 254 | 1.0 | 3.0 | 0.02 | 0.07 | 0.07 | 86 | 1013.7 |
| 20260505111719 | 54 | 265 | 1.0 | 3.0 | 0.02 | 0.07 | 0.07 | 86 | 1013.7 |
| 20260505110732 | 54 | 275 | 0.0 | 3.0 | 0.02 | 0.07 | 0.07 | 86 | 1013.8 |
| 20260505110232 | 54 | 278 | 0.0 | 2.0 | 0.02 | 0.07 | 0.07 | 86 | 1013.9 |
| 20260505101724 | 54 | 279 | 0.0 | 2.0 | 0.03 | 0.05 | 0.05 | 85 | 1013.9 |
| 20260505101222 | 54 | 279 | 0.0 | 2.0 | 0.03 | 0.05 | 0.05 | 85 | 1013.9 |
| 20260505100722 | 54 | 279 | 1.0 | 3.0 | 0.04 | 0.05 | 0.05 | 85 | 1013.9 |
| 20260505100222 | 54 | 279 | 1.0 | 3.0 | 0.04 | 0.05 | 0.05 | 85 | 1013.9 |
| 20260505095719 | 54 | 280 | 1.0 | 3.0 | 0.04 | 0.05 | 0.05 | 85 | 1014.0 |
| 20260505095218 | 54 | 281 | 1.0 | 3.0 | 0.04 | 0.05 | 0.05 | 85 | 1014.0 |
| 20260505094718 | 54 | 284 | 0.0 | 2.0 | 0.03 | 0.04 | 0.04 | 84 | 1014.0 |
| 20260505094218 | 54 | 284 | 0.0 | 0.0 | 0.02 | 0.03 | 0.04 | 84 | 1014.0 |
| 20260505093933 | 54 | 285 | 0.0 | 1.0 | 0.02 | 0.03 | 0.03 | 84 | 1014.0 |
| 20260505093215 | 54 | 285 | 0.0 | 2.0 | 0.01 | 0.02 | 0.02 | 84 | 1014.1 |
| 20260505092714 | 54 | 285 | 0.0 | 2.0 | 0.01 | 0.02 | 0.02 | 84 | 1014.3 |
| 20260505092215 | 54 | 284 | 1.0 | 3.0 | 0.01 | 0.02 | 0.02 | 84 | 1014.3 |
| 20260505091714 | 54 | 284 | 2.0 | 3.0 | 0.01 | 0.02 | 0.02 | 84 | 1014.3 |
| 20260505091212 | 54 | 285 | 2.0 | 4.0 | 0.01 | 0.02 | 0.02 | 84 | 1014.3 |
| 20260505090712 | 54 | 287 | 2.0 | 4.0 | 0.00 | 0.01 | 0.01 | 84 | 1014.3 |
| 20260505090213 | 54 | 284 | 1.0 | 3.0 | 0.00 | 0.01 | 0.01 | 84 | 1014.3 |
| 20260505085712 | 54 | 285 | 1.0 | 2.0 | 0.00 | 0.01 | 0.01 | 84 | 1014.3 |
| 20260505085212 | 54 | 285 | 1.0 | 2.0 | 0.00 | 0.01 | 0.01 | 84 | 1014.3 |
| 20260505084710 | 54 | 285 | 1.0 | 2.0 | 0.00 | 0.01 | 0.01 | 84 | 1014.3 |
| 20260505084212 | 54 | 285 | 1.0 | 2.0 | 0.00 | 0.01 | 0.01 | 84 | 1014.2 |
| 20260505083710 | 54 | 285 | 0.0 | 2.0 | 0.00 | 0.01 | 0.01 | 84 | 1014.2 |
| 20260505083208 | 54 | 285 | 0.0 | 1.0 | 0.00 | 0.01 | 0.01 | 83 | 1014.3 |
| 20260505082656 | 54 | 285 | 0.0 | 1.0 | 0.00 | 0.01 | 0.01 | 83 | 1014.4 |
| 20260505082414 | 54 | 285 | 0.0 | 1.0 | 0.00 | 0.01 | 0.01 | 83 | 1014.5 |
| 20260505081925 | 54 | 285 | 0.0 | 2.0 | 0.00 | 0.01 | 0.01 | 83 | 1014.6 |
| 20260505081153 | 54 | 285 | 1.0 | 4.0 | 0.00 | 0.01 | 0.01 | 83 | 1014.6 |
| 20260505080654 | 54 | 285 | 2.0 | 4.0 | 0.00 | 0.01 | 0.01 | 83 | 1014.6 |
| 20260505080154 | 54 | 290 | 1.0 | 4.0 | 0.01 | 0.01 | 0.01 | 83 | 1014.7 |
| 20260505075916 | 54 | 291 | 1.0 | 4.0 | 0.01 | 0.01 | 0.01 | 83 | 1014.8 |
| 20260505075150 | 54 | 305 | 2.0 | 4.0 | 0.01 | 0.01 | 0.01 | 83 | 1014.8 |
| 20260505074649 | 54 | 309 | 2.0 | 4.0 | 0.01 | 0.01 | 0.01 | 83 | 1014.8 |
| 20260505074148 | 54 | 311 | 3.0 | 7.0 | 0.01 | 0.01 | 0.01 | 83 | 1014.9 |
| 20260505073646 | 54 | 319 | 3.0 | 7.0 | 0.01 | 0.01 | 0.01 | 82 | 1014.8 |
| 20260505073146 | 55 | 309 | 3.0 | 9.0 | 0.01 | 0.01 | 0.01 | 82 | 1014.7 |
| 20260505072910 | 55 | 304 | 3.0 | 9.0 | 0.01 | 0.01 | 0.01 | 82 | 1014.8 |
| 20260505072146 | 55 | 305 | 4.0 | 8.0 | 0.01 | 0.01 | 0.01 | 82 | 1015.0 |
| 20260505071645 | 55 | 305 | 3.0 | 8.0 | 0.01 | 0.01 | 0.01 | 81 | 1014.9 |
| 20260505071138 | 55 | 315 | 3.0 | 8.0 | 0.01 | 0.01 | 0.01 | 81 | 1014.7 |
| 20260505070636 | 55 | 306 | 3.0 | 8.0 | 0.01 | 0.01 | 0.01 | 81 | 1014.7 |
| 20260505070351 | 55 | 328 | 4.0 | 9.0 | 0.00 | 0.00 | 0.00 | 80 | 1014.8 |
| 20260505065635 | 55 | 304 | 4.0 | 9.0 | 0.00 | 0.00 | 0.00 | 80 | 1014.7 |
| 20260505065133 | 56 | 308 | 3.0 | 8.0 | 0.00 | 0.00 | 0.00 | 80 | 1014.6 |
| 20260505064633 | 56 | 319 | 3.0 | 8.0 | 0.00 | 0.00 | 0.00 | 79 | 1014.6 |
| 20260505064132 | 56 | 333 | 4.0 | 8.0 | 0.00 | 0.00 | 0.00 | 79 | 1014.6 |
| 20260505063631 | 56 | 323 | 4.0 | 8.0 | 0.00 | 0.00 | 0.00 | 78 | 1014.6 |
| 20260505063132 | 56 | 307 | 3.0 | 8.0 | 0.00 | 0.00 | 0.00 | 78 | 1014.4 |
| 20260505062632 | 56 | 314 | 3.0 | 7.0 | 0.00 | 0.00 | 0.00 | 78 | 1014.4 |
| 20260505062132 | 56 | 304 | 3.0 | 8.0 | 0.00 | 0.00 | 0.00 | 78 | 1014.4 |
| 20260505061632 | 56 | 309 | 4.0 | 8.0 | 0.00 | 0.00 | 0.00 | 78 | 1014.4 |
| 20260505061353 | 56 | 327 | 4.0 | 8.0 | 0.00 | 0.00 | 0.00 | 78 | 1014.2 |
| 20260505060630 | 56 | 344 | 4.0 | 8.0 | 0.00 | 0.00 | 0.00 | 78 | 1014.3 |
| 20260505060335 | 56 | 344 | 2.0 | 5.0 | 0.00 | 0.00 | 0.00 | 78 | 1014.4 |
| 20260505060213 | 56 | 315 | 3.0 | 8.0 | 0.00 | 0.00 | 0.00 | 78 | 1014.4 |
| 20260505055127 | 56 | 323 | 2.0 | 4.0 | 0.00 | 0.00 | 0.00 | 78 | 1014.2 |
| 20260505054619 | 56 | 348 | 2.0 | 4.0 | 0.00 | 0.00 | 0.00 | 78 | 1014.2 |
| 20260505054118 | 56 | 334 | 2.0 | 4.0 | 0.00 | 0.00 | 0.00 | 78 | 1014.1 |
| 20260505053618 | 56 | 338 | 2.0 | 5.0 | 0.00 | 0.00 | 0.00 | 78 | 1014.1 |
| 20260505053117 | 56 | 338 | 3.0 | 6.0 | 0.00 | 0.00 | 0.00 | 78 | 1014.2 |
| 20260505052618 | 56 | 355 | 3.0 | 6.0 | 0.00 | 0.00 | 0.00 | 78 | 1014.1 |
| 20260505052118 | 56 | 343 | 3.0 | 5.0 | 0.00 | 0.00 | 0.00 | 78 | 1014.1 |
| 20260505051613 | 56 | 312 | 3.0 | 5.0 | 0.00 | 0.00 | 0.00 | 78 | 1014.2 |
| 20260505051338 | 56 | 313 | 3.0 | 8.0 | 0.00 | 0.00 | 0.00 | 77 | 1014.3 |
| 20260505050610 | 56 | 309 | 4.0 | 8.0 | 0.00 | 0.00 | 0.00 | 77 | 1014.3 |
| 20260505050110 | 56 | 305 | 3.0 | 8.0 | 0.00 | 0.00 | 0.00 | 77 | 1014.4 |
| 20260505041601 | 58 | 335 | 8.0 | 15.0 | 0.00 | 0.00 | 0.00 | 72 | 1014.7 |
| 20260505041333 | 58 | 325 | 8.0 | 15.0 | 0.00 | 0.00 | 0.00 | 71 | 1014.5 |
| 20260505040554 | 58 | 309 | 7.0 | 14.0 | 0.00 | 0.00 | 0.00 | 70 | 1014.4 |
| 20260505040054 | 58 | 315 | 6.0 | 13.0 | 0.00 | 0.00 | 0.00 | 69 | 1014.3 |
| 20260505035812 | 58 | 317 | 6.0 | 14.0 | 0.00 | 0.00 | 0.00 | 69 | 1014.3 |
| 20260505035051 | 58 | 319 | 6.0 | 14.0 | 0.00 | 0.00 | 0.00 | 69 | 1014.2 |
| 20260505034818 | 58 | 311 | 6.0 | 12.0 | 0.00 | 0.00 | 0.00 | 68 | 1014.2 |
| 20260505034310 | 58 | 319 | 7.0 | 12.0 | 0.00 | 0.00 | 0.00 | 67 | 1014.1 |
| 20260505033547 | 59 | 329 | 7.0 | 12.0 | 0.00 | 0.00 | 0.00 | 67 | 1014.1 |
| 20260505033046 | 59 | 313 | 6.0 | 11.0 | 0.00 | 0.00 | 0.00 | 67 | 1014.0 |
| 20260505032545 | 59 | 316 | 6.0 | 11.0 | 0.00 | 0.00 | 0.00 | 67 | 1013.9 |
| 20260505032045 | 59 | 313 | 6.0 | 10.0 | 0.00 | 0.00 | 0.00 | 66 | 1013.8 |
| 20260505031546 | 60 | 301 | 7.0 | 11.0 | 0.00 | 0.00 | 0.00 | 66 | 1013.7 |
| 20260505031045 | 60 | 307 | 6.0 | 11.0 | 0.00 | 0.00 | 0.00 | 66 | 1013.6 |
| 20260505030545 | 60 | 301 | 5.0 | 11.0 | 0.00 | 0.00 | 0.00 | 65 | 1013.6 |
| 20260505030045 | 60 | 322 | 6.0 | 12.0 | 0.00 | 0.00 | 0.00 | 65 | 1013.6 |
| 20260505025537 | 61 | 302 | 6.0 | 12.0 | 0.00 | 0.00 | 0.00 | 65 | 1013.6 |
| 20260505025036 | 61 | 344 | 5.0 | 10.0 | 0.00 | 0.00 | 0.00 | 64 | 1013.6 |
| 20260505024537 | 61 | 309 | 5.0 | 10.0 | 0.00 | 0.00 | 0.00 | 64 | 1013.5 |
| 20260505024037 | 62 | 329 | 5.0 | 9.0 | 0.00 | 0.00 | 0.00 | 63 | 1013.4 |
| 20260505023536 | 62 | 295 | 5.0 | 11.0 | 0.00 | 0.00 | 0.00 | 63 | 1013.3 |
| 20260505023034 | 62 | 311 | 4.0 | 11.0 | 0.00 | 0.00 | 0.00 | 62 | 1013.3 |
| 20260505022534 | 62 | 289 | 3.0 | 8.0 | 0.00 | 0.00 | 0.00 | 61 | 1013.4 |
| 20260505022259 | 63 | 271 | 3.0 | 7.0 | 0.00 | 0.00 | 0.00 | 61 | 1013.4 |
| 20260505021757 | 63 | 277 | 4.0 | 7.0 | 0.00 | 0.00 | 0.00 | 60 | 1013.4 |
| 20260505021032 | 63 | 275 | 3.0 | 7.0 | 0.00 | 0.00 | 0.00 | 59 | 1013.5 |
| 20260505020530 | 63 | 284 | 3.0 | 7.0 | 0.00 | 0.00 | 0.00 | 59 | 1013.6 |
| 20260505020030 | 63 | 295 | 3.0 | 8.0 | 0.00 | 0.00 | 0.00 | 59 | 1013.5 |
| 20260505015525 | 63 | 278 | 3.0 | 8.0 | 0.00 | 0.00 | 0.00 | 58 | 1013.5 |
| 20260505015025 | 63 | 286 | 3.0 | 7.0 | 0.00 | 0.00 | 0.00 | 58 | 1013.5 |
| 20260505014524 | 63 | 286 | 3.0 | 7.0 | 0.00 | 0.00 | 0.00 | 56 | 1013.6 |
| 20260505014254 | 63 | 271 | 3.0 | 7.0 | 0.00 | 0.00 | 0.00 | 55 | 1013.6 |
| 20260505013521 | 63 | 279 | 3.0 | 7.0 | 0.00 | 0.00 | 0.00 | 54 | 1013.6 |
| 20260505013021 | 63 | 306 | 3.0 | 7.0 | 0.00 | 0.00 | 0.00 | 54 | 1013.7 |
| 20260505012520 | 64 | 284 | 3.0 | 7.0 | 0.00 | 0.00 | 0.00 | 53 | 1013.7 |
| 20260505012016 | 64 | 264 | 3.0 | 7.0 | 0.00 | 0.00 | 0.00 | 53 | 1013.8 |
| 20260505011516 | 64 | 244 | 4.0 | 7.0 | 0.00 | 0.00 | 0.00 | 53 | 1013.9 |
| 20260505011014 | 64 | 257 | 5.0 | 9.0 | 0.00 | 0.00 | 0.00 | 54 | 1013.8 |
| 20260505010513 | 64 | 241 | 5.0 | 9.0 | 0.00 | 0.00 | 0.00 | 54 | 1013.8 |
| 20260505010236 | 64 | 269 | 4.0 | 8.0 | 0.00 | 0.00 | 0.00 | 56 | 1013.9 |
| 20260505005512 | 64 | 263 | 3.0 | 8.0 | 0.00 | 0.00 | 0.00 | 56 | 1013.9 |
| 20260505005011 | 64 | 283 | 3.0 | 8.0 | 0.00 | 0.00 | 0.00 | 55 | 1013.8 |
| 20260505004729 | 64 | 283 | 3.0 | 7.0 | 0.00 | 0.00 | 0.00 | 56 | 1013.8 |
| 20260505004009 | 64 | 265 | 4.0 | 8.0 | 0.00 | 0.00 | 0.00 | 57 | 1013.9 |
| 20260505003509 | 64 | 279 | 5.0 | 9.0 | 0.00 | 0.00 | 0.00 | 57 | 1013.8 |
| 20260505003002 | 65 | 257 | 5.0 | 9.0 | 0.00 | 0.00 | 0.00 | 57 | 1013.8 |
| 20260505002500 | 65 | 290 | 5.0 | 9.0 | 0.00 | 0.00 | 0.00 | 57 | 1013.8 |
| 20260505001959 | 65 | 276 | 4.0 | 8.0 | 0.00 | 0.00 | 0.00 | 57 | 1013.8 |
| 20260505001455 | 65 | 244 | 3.0 | 7.0 | 0.00 | 0.00 | 0.00 | 56 | 1013.9 |
| 20260505000954 | 65 | 217 | 3.0 | 6.0 | 0.00 | 0.00 | 0.00 | 56 | 1013.9 |
| 20260505000452 | 65 | 225 | 3.0 | 7.0 | 0.00 | 0.00 | 0.00 | 55 | 1013.9 |
| 20260504235953 | 65 | 254 | 3.0 | 7.0 | 0.00 | 0.00 | 0.00 | 55 | 1013.9 |
| 20260504235452 | 65 | 259 | 3.0 | 8.0 | 0.00 | 0.00 | 0.00 | 55 | 1013.9 |
| 20260504234950 | 65 | 254 | 2.0 | 8.0 | 0.00 | 0.00 | 0.00 | 55 | 1013.9 |
| 20260504234447 | 65 | 225 | 2.0 | 7.0 | 0.00 | 0.00 | 0.00 | 55 | 1013.9 |
| 20260504233946 | 65 | 225 | 3.0 | 7.0 | 0.00 | 0.00 | 0.00 | 55 | 1013.9 |
| 20260504233706 | 65 | 238 | 3.0 | 7.0 | 0.00 | 0.00 | 0.00 | 55 | 1013.9 |
| 20260504232944 | 65 | 228 | 3.0 | 7.0 | 0.00 | 0.00 | 0.00 | 55 | 1013.9 |
| 20260504232441 | 65 | 222 | 3.0 | 6.0 | 0.00 | 0.00 | 0.00 | 56 | 1013.8 |
| 20260504231941 | 65 | 205 | 3.0 | 7.0 | 0.00 | 0.00 | 0.00 | 56 | 1013.9 |
| 20260504231440 | 65 | 213 | 3.0 | 7.0 | 0.00 | 0.00 | 0.00 | 57 | 1013.8 |
| 20260504230924 | 65 | 201 | 2.0 | 6.0 | 0.00 | 0.00 | 0.00 | 57 | 1013.9 |
| 20260504230421 | 65 | 150 | 1.0 | 3.0 | 0.00 | 0.00 | 0.00 | 58 | 1013.8 |
| 20260504225921 | 65 | 146 | 1.0 | 5.0 | 0.00 | 0.00 | 0.00 | 58 | 1013.8 |
| 20260504225420 | 65 | 146 | 1.0 | 5.0 | 0.00 | 0.00 | 0.00 | 59 | 1013.8 |
| 20260504224917 | 65 | 160 | 2.0 | 5.0 | 0.00 | 0.00 | 0.00 | 59 | 1013.8 |
| 20260504224647 | 65 | 5 | 3.0 | 6.0 | 0.00 | 0.00 | 0.00 | 58 | 1013.8 |
| 20260504223917 | 65 | 46 | 3.0 | 6.0 | 0.00 | 0.00 | 0.00 | 58 | 1013.8 |
| 20260504223418 | 65 | 13 | 3.0 | 10.0 | 0.00 | 0.00 | 0.00 | 58 | 1013.8 |
| 20260504223141 | 65 | 13 | 4.0 | 12.0 | 0.00 | 0.00 | 0.00 | 58 | 1013.9 |
| 20260504222417 | 65 | 344 | 6.0 | 12.0 | 0.00 | 0.00 | 0.00 | 58 | 1013.9 |
| 20260504221913 | 65 | 329 | 6.0 | 12.0 | 0.00 | 0.00 | 0.00 | 57 | 1013.9 |
| 20260504221413 | 66 | 344 | 6.0 | 12.0 | 0.00 | 0.00 | 0.00 | 57 | 1013.9 |
| 20260504220911 | 66 | 335 | 7.0 | 12.0 | 0.00 | 0.00 | 0.00 | 56 | 1013.9 |
| 20260504220410 | 66 | 343 | 6.0 | 14.0 | 0.00 | 0.00 | 0.00 | 56 | 1014.0 |
| 20260504215908 | 67 | 333 | 5.0 | 14.0 | 0.00 | 0.00 | 0.00 | 55 | 1014.0 |
| 20260504215408 | 67 | 300 | 4.0 | 10.0 | 0.00 | 0.00 | 0.00 | 54 | 1014.0 |
| 20260504214909 | 67 | 310 | 2.0 | 6.0 | 0.00 | 0.00 | 0.00 | 54 | 1014.1 |
| 20260504214409 | 67 | 234 | 2.0 | 8.0 | 0.00 | 0.00 | 0.00 | 54 | 1014.1 |
| 20260504214134 | 67 | 38 | 3.0 | 8.0 | 0.00 | 0.00 | 0.00 | 53 | 1014.1 |
| 20260504213407 | 67 | 308 | 3.0 | 6.0 | 0.00 | 0.00 | 0.00 | 53 | 1014.1 |
| 20260504212910 | 67 | 82 | 3.0 | 9.0 | 0.00 | 0.00 | 0.00 | 54 | 1014.0 |
| 20260504212407 | 67 | 98 | 4.0 | 9.0 | 0.00 | 0.00 | 0.00 | 52 | 1014.1 |
| 20260504211908 | 68 | 102 | 4.0 | 9.0 | 0.00 | 0.00 | 0.00 | 53 | 1014.1 |
| 20260504211406 | 68 | 61 | 3.0 | 9.0 | 0.00 | 0.00 | 0.00 | 52 | 1014.1 |
| 20260504210906 | 68 | 67 | 3.0 | 8.0 | 0.00 | 0.00 | 0.00 | 52 | 1014.2 |
| 20260504210405 | 69 | 82 | 5.0 | 10.0 | 0.00 | 0.00 | 0.00 | 51 | 1014.2 |
| 20260504205906 | 69 | 96 | 5.0 | 10.0 | 0.00 | 0.00 | 0.00 | 51 | 1014.2 |
| 20260504205626 | 69 | 338 | 4.0 | 10.0 | 0.00 | 0.00 | 0.00 | 53 | 1014.1 |
| 20260504204905 | 67 | 346 | 4.0 | 11.0 | 0.00 | 0.00 | 0.00 | 55 | 1014.2 |
| 20260504204404 | 66 | 350 | 5.0 | 11.0 | 0.00 | 0.00 | 0.00 | 55 | 1014.3 |
| 20260504203903 | 67 | 34 | 5.0 | 11.0 | 0.00 | 0.00 | 0.00 | 54 | 1014.3 |
| 20260504203403 | 67 | 351 | 4.0 | 10.0 | 0.00 | 0.00 | 0.00 | 54 | 1014.3 |
| 20260504202901 | 66 | 340 | 4.0 | 10.0 | 0.00 | 0.00 | 0.00 | 55 | 1014.3 |
| 20260504202359 | 66 | 333 | 5.0 | 11.0 | 0.00 | 0.00 | 0.00 | 56 | 1014.2 |
| 20260504201858 | 66 | 344 | 5.0 | 11.0 | 0.00 | 0.00 | 0.00 | 56 | 1014.2 |
| 20260504201353 | 66 | 337 | 5.0 | 10.0 | 0.00 | 0.00 | 0.00 | 56 | 1014.2 |
| 20260504200853 | 66 | 346 | 6.0 | 10.0 | 0.00 | 0.00 | 0.00 | 55 | 1014.2 |
| 20260504200606 | 66 | 331 | 5.0 | 11.0 | 0.00 | 0.00 | 0.00 | 55 | 1014.2 |
| 20260504200109 | 66 | 349 | 6.0 | 11.0 | 0.00 | 0.00 | 0.00 | 54 | 1014.3 |
| 20260504195343 | 66 | 344 | 7.0 | 13.0 | 0.00 | 0.00 | 0.00 | 56 | 1014.3 |
| 20260504194839 | 66 | 311 | 6.0 | 13.0 | 0.00 | 0.00 | 0.00 | 55 | 1014.3 |
| 20260504194339 | 66 | 311 | 5.0 | 13.0 | 0.00 | 0.00 | 0.00 | 56 | 1014.3 |
| 20260504193837 | 66 | 347 | 5.0 | 13.0 | 0.00 | 0.00 | 0.00 | 56 | 1014.3 |
| 20260504193818 | 66 | 312 | 5.0 | 13.0 | 0.00 | 0.00 | 0.00 | 56 | 1014.4 |
| 20260504192835 | 66 | 321 | 6.0 | 13.0 | 0.00 | 0.00 | 0.00 | 57 | 1014.3 |
| 20260504192831 | 66 | 315 | 6.0 | 13.0 | 0.00 | 0.00 | 0.00 | 57 | 1014.4 |
| 20260504191830 | 66 | 350 | 6.0 | 12.0 | 0.00 | 0.00 | 0.00 | 57 | 1014.4 |
| 20260504191331 | 67 | 338 | 6.0 | 12.0 | 0.00 | 0.00 | 0.00 | 56 | 1014.4 |
| 20260504191053 | 67 | 261 | 7.0 | 13.0 | 0.00 | 0.00 | 0.00 | 57 | 1014.4 |
| 20260504190331 | 66 | 346 | 8.0 | 15.0 | 0.00 | 0.00 | 0.00 | 57 | 1014.4 |
| 20260504185831 | 66 | 336 | 8.0 | 15.0 | 0.00 | 0.00 | 0.00 | 57 | 1014.4 |
| 20260504185332 | 67 | 338 | 6.0 | 12.0 | 0.00 | 0.00 | 0.00 | 56 | 1014.3 |
| 20260504184825 | 66 | 339 | 5.0 | 11.0 | 0.00 | 0.00 | 0.00 | 57 | 1014.4 |
| 20260504184322 | 66 | 309 | 5.0 | 12.0 | 0.00 | 0.00 | 0.00 | 57 | 1014.4 |
| 20260504183822 | 66 | 326 | 6.0 | 12.0 | 0.00 | 0.00 | 0.00 | 58 | 1014.3 |
| 20260504183322 | 66 | 26 | 6.0 | 14.0 | 0.00 | 0.00 | 0.00 | 58 | 1014.4 |
| 20260504183044 | 67 | 27 | 6.0 | 14.0 | 0.00 | 0.00 | 0.00 | 56 | 1014.4 |
| 20260504182321 | 67 | 345 | 4.0 | 13.0 | 0.00 | 0.00 | 0.00 | 55 | 1014.4 |
| 20260504181821 | 67 | 75 | 3.0 | 10.0 | 0.00 | 0.00 | 0.00 | 55 | 1014.4 |
| 20260504181321 | 67 | 168 | 3.0 | 7.0 | 0.00 | 0.00 | 0.00 | 50 | 1014.4 |
| 20260504180818 | 67 | 132 | 2.0 | 7.0 | 0.00 | 0.00 | 0.00 | 50 | 1014.4 |
| 20260504180319 | 68 | 119 | 2.0 | 4.0 | 0.00 | 0.00 | 0.00 | 49 | 1014.3 |
| 20260504180035 | 68 | 130 | 2.0 | 4.0 | 0.00 | 0.00 | 0.00 | 49 | 1014.3 |
| 20260504175313 | 68 | 5 | 2.0 | 4.0 | 0.00 | 0.00 | 0.00 | 48 | 1014.2 |
| 20260504174813 | 68 | 67 | 3.0 | 9.0 | 0.00 | 0.00 | 0.00 | 48 | 1014.3 |
| 20260504174314 | 68 | 61 | 3.0 | 9.0 | 0.00 | 0.00 | 0.00 | 48 | 1014.2 |
| 20260504173809 | 68 | 71 | 2.0 | 8.0 | 0.00 | 0.00 | 0.00 | 49 | 1014.3 |
| 20260504173309 | 67 | 28 | 3.0 | 8.0 | 0.00 | 0.00 | 0.00 | 50 | 1014.2 |
| 20260504172808 | 66 | 49 | 3.0 | 8.0 | 0.00 | 0.00 | 0.00 | 51 | 1014.2 |
| 20260504172305 | 66 | 37 | 3.0 | 8.0 | 0.00 | 0.00 | 0.00 | 50 | 1014.4 |
| 20260504171805 | 66 | 65 | 3.0 | 8.0 | 0.00 | 0.00 | 0.00 | 51 | 1014.3 |
| 20260504171301 | 66 | 15 | 3.0 | 8.0 | 0.00 | 0.00 | 0.00 | 52 | 1014.3 |
| 20260504171254 | 67 | 13 | 3.0 | 8.0 | 0.00 | 0.00 | 0.00 | 52 | 1014.1 |
| 20260504170301 | 66 | 44 | 4.0 | 8.0 | 0.00 | 0.00 | 0.00 | 51 | 1014.1 |
| 20260504160250 | 62 | 252 | 5.0 | 11.0 | 0.00 | 0.00 | 0.00 | 61 | 1013.8 |
| 20260504150742 | 56 | 222 | 3.0 | 8.0 | 0.00 | 0.00 | 0.00 | 75 | 1014.1 |
| 20260504150239 | 55 | 221 | 2.0 | 5.0 | 0.00 | 0.00 | 0.00 | 76 | 1014.1 |
| 20260504141221 | 54 | 229 | 1.0 | 3.0 | 0.00 | 0.00 | 0.00 | 77 | 1014.1 |
| 20260504140720 | 54 | 229 | 0.0 | 3.0 | 0.00 | 0.00 | 0.00 | 76 | 1014.0 |
| 20260504140213 | 54 | 229 | 0.0 | 1.0 | 0.00 | 0.00 | 0.00 | 76 | 1014.1 |